Location: Krasnoyarskiy Pitomnik
(51.1333°N, 71.6167°E)
Time: 14:09:20
(UTC+00:00)

CZ-2C R/B - Pass Details

Date: 22 October 2021
Orbit: 784 x 870 km, 98.2° (Epoch: 26 November)

Event Time Altitude Azimuth Distance (km) Brightness Sun altitude
Rises 14:11:19 0° 11° (NNE) 3,473 5.9 -20.2°
Reaches altitude 10° 14:13:45 10° 8° (N) 2,528 5.2 -20.6°
Maximum altitude 14:19:16 58° 291° (WNW) 1,005 3.3 -21.5°
Drops below altitude 10° 14:24:40 10° 214° (SW) 2,478 5.4 -22.3°
Sets 14:27:02 0° 210° (SSW) 3,398 6.1 -22.7°
